Location: Bocianicha
(51.5066°N, 19.2563°E)
Time: 12:39:45
(UTC+00:00)

FENGYUN 3A - Pass Details

Date: 15 June 2025
Orbit: 820 x 834 km, 98.6° (Epoch: 17 July)

Event Time Altitude Azimuth Distance (km) Brightness Sun altitude
Rises 01:02:45 0° 15° (NNE) 3,368 8.5 -9.2°
Reaches altitude 10° 01:05:07 10° 15° (NNE) 2,430 7.5 -9.0°
Maximum altitude 01:10:30 89° 104° (ESE) 829 3.7 -8.5°
Drops below altitude 10° 01:15:52 10° 197° (SSW) 2,415 5.5 -8.1°
Enters shadow 01:16:13 - 197° (SSW) 2,554 5.6 -8.0°
